COSMOS 1275 DEB, 42233

Orbit data source: Space-Track

COSMOS 1275 DEB, 42233 is space debris in LEO originally from a launch on Thu, 04 Jun 1981 UTC launched from the Plesetsk Missile And Space Complex (PKMTR). Debris objects in space refer to the collection of defunct objects orbiting the Earth. Examples of debris include non-operational satellites, rocket bodies, and fragments generated from explosions, collisions, or faulty payload assembly.

Loading next visibility...
Identifier
42233, 1981-053UZ
Orbit
LEO
Country
Flag of CISCIS
Related business
Manufacturer
Unknown
Mission
Spacecraft
Bus & Motor
Unknown
Mass
Unknown
Launch date (UTC)
1981-06-04 (45 years ago)
Launch vehicle
Unknown
Launch site
Plesetsk Missile And Space Complex (PKMTR)
Object type
Payload
Rocket body
Debris
Shape & HBR
Unknown shape, 0.1 m
Radar Cross Section
Small (<0.1 m²)

Expand to show TLE details & history
Last TLE update: 8 hours ago

TLE from 8 hours ago
0 COSMOS 1275 DEB
1 42233U 81053UZ  26124.45163499  .00000412  00000-0  44788-3 0  9998
2 42233  83.0432  27.2371 0132226 266.6792  91.9227 13.67193251574208
Epoch: 2026-05-04T10:50Z
TLE epoch observation values (Epoch: 2026-05-04T10:50:21.263Z)
Latitude
0.00003°
Longitude
2.30787°
Altitude
1,017.124 km
Speed
7.341 km/s
True Right ascension
01h 48m 56s
True Declination
0° 00' 00"
Sunlit
Object was in daylight at epoch
Visualization orbit readout
Latitude
Unknown
Longitude
Unknown
Altitude
Unknown
Speed
Unknown
Apparent Right ascension
Unknown
Apparent Declination
Unknown
Sunlit
N/A
Visualization observer readout
Local Sidereal Time
02:18:14
Azimuth
Unknown
Elevation
Unknown
Doppler factor
Unknown
Orbital elements
Apogee altitude
1,104.468 km
Perigee altitude
909.172 km
Semi-major axis
7,384.957 km
Eccentricity
0.01322
Inclination
83.0432°
RAAN
27.2371°
Arg. of periapsis
266.6792°
True anomaly
93.43603°
Mean anomaly
91.9227°
Eccentric anomaly
92.67947°
Mean motion
3.41996 °/min
Orbital period
105.26 mins
BSTAR
0.00044788
Loading maneuver chart data...
Computing Atmospheric mass density...
Loading historical data...
Loading historical data...
Loading historical data...
Loading historical data...
Loading historical data...
Loading historical data...
Loading historical data...

Documentation

Showing up to 5 results
|